DDEMO EHSE-EHSE

Flight info

Callsign DDEMO
Flight time 0h 3m
Altitude 1500
Route 5139N00436E
Aircraft E300/L-SFG/C

Departure

Time 2026-04-24 12:36
Airport Breda International Airport (EHSE)

Arrival

Time 2026-04-24 12:39
Airport Breda International Airport (EHSE)
Time Latitude Longitude Altitude Speed Heading
2026-04-24 12:20 51.55473 4.54974 35 ft 0 kts 337°
2026-04-24 12:21 51.55487 4.54965 35 ft 0 kts 340°
2026-04-24 12:23 51.55488 4.54965 35 ft 0 kts 309°
2026-04-24 12:25 51.55496 4.54948 35 ft 0 kts 236°
2026-04-24 12:27 51.55473 4.54974 35 ft 0 kts 337°
2026-04-24 12:30 51.55474 4.54973 35 ft 2 kts 338°
2026-04-24 12:30 51.55475 4.54973 35 ft 0 kts 338°
2026-04-24 12:30 51.55457 4.54951 35 ft 12 kts 208°
2026-04-24 12:31 51.55436 4.54912 35 ft 0 kts 250°
2026-04-24 12:33 51.55419 4.54848 35 ft 17 kts 246°
2026-04-24 12:33 51.55396 4.54782 35 ft 0 kts 178°
2026-04-24 12:35 51.55355 4.54846 35 ft 16 kts 43°
2026-04-24 12:35 51.55383 4.54910 35 ft 0 kts 72°
2026-04-24 12:35 51.55387 4.54928 35 ft 13 kts 69°
2026-04-24 12:36 51.55558 4.55523 42 ft 115 kts 64°
2026-04-24 12:36 51.55908 4.56461 856 ft 83 kts 46°
2026-04-24 12:36 51.56164 4.57491 642 ft 112 kts 87°
2026-04-24 12:36 51.55712 4.58222 407 ft 95 kts 181°
2026-04-24 12:37 51.55147 4.57453 698 ft 129 kts 237°
2026-04-24 12:37 51.54522 4.56120 903 ft 136 kts 240°
2026-04-24 12:37 51.54117 4.55055 632 ft 92 kts 244°
2026-04-24 12:37 51.54036 4.53992 654 ft 91 kts 328°
2026-04-24 12:38 51.54912 4.53630 586 ft 184 kts 28°
2026-04-24 12:38 51.55620 4.55732 142 ft 224 kts 66°
2026-04-24 12:38 51.56018 4.57558 1356 ft 186 kts 77°
2026-04-24 12:39 51.55473 4.54974 36 ft 0 kts 337°
2026-04-24 12:40 51.55456 4.54926 36 ft 20 kts 236°
2026-04-24 12:40 51.55390 4.54779 36 ft 10 kts 186°
2026-04-24 12:41 51.55375 4.54878 35 ft 14 kts 67°
2026-04-24 12:41 51.55486 4.55296 35 ft 100 kts 66°
2026-04-24 12:41 51.55833 4.56494 799 ft 129 kts 60°
2026-04-24 12:41 51.55529 4.58086 809 ft 173 kts 214°
2026-04-24 12:42 51.54987 4.57083 727 ft 185 kts 235°
2026-04-24 12:42 51.54204 4.55335 671 ft 202 kts 239°
2026-04-24 12:42 51.53688 4.53383 838 ft 177 kts 287°
2026-04-24 12:42 51.54747 4.52861 531 ft 200 kts 46°
2026-04-24 12:43 51.55411 4.54938 65 ft 224 kts 64°
2026-04-24 12:43 51.55790 4.56214 1990 ft 25 kts 225°
2026-04-24 12:43 51.55645 4.56010 507 ft 63 kts 251°
2026-04-24 12:43 51.55238 4.54346 835 ft 101 kts 241°
2026-04-24 12:44 51.55138 4.54321 765 ft 202 kts 290°
2026-04-24 12:44 51.55743 4.55682 258 ft 218 kts 54°
2026-04-24 12:44 51.55789 4.57201 1208 ft 81 kts 105°
2026-04-24 12:44 51.55571 4.56727 225 ft 181 kts 299°
2026-04-24 12:45 51.55389 4.54838 82 ft 158 kts 245°
2026-04-24 12:45 51.54593 4.54686 853 ft 150 kts 240°
2026-04-24 12:45 51.55268 4.54485 158 ft 214 kts 61°
2026-04-24 12:45 51.55952 4.56548 676 ft 188 kts 44°
2026-04-24 12:46 51.56797 4.57882 1013 ft 160 kts 80°
2026-04-24 12:46 51.57132 4.59452 861 ft 143 kts 50°
2026-04-24 12:46 51.57798 4.60235 378 ft 101 kts 16°
2026-04-24 12:46 51.58547 4.60450 617 ft 121 kts
2026-04-24 12:47 51.59618 4.60386 792 ft 169 kts 336°
2026-04-24 12:47 51.60635 4.59688 1799 ft 163 kts 348°
2026-04-24 12:47 51.61763 4.59337 1512 ft 175 kts 351°
2026-04-24 12:47 51.62896 4.58632 2191 ft 180 kts 305°
2026-04-24 12:48 51.63770 4.58133 2569 ft 175 kts 14°
2026-04-24 12:48 51.64068 4.59964 1235 ft 237 kts 34°
2026-04-24 12:48 51.63808 4.61411 788 ft 235 kts 142°
2026-04-24 12:48 51.63044 4.63465 1537 ft 207 kts 126°
2026-04-24 12:49 51.62154 4.65079 1315 ft 163 kts 132°
2026-04-24 12:49 51.61478 4.66093 957 ft 115 kts 140°
2026-04-24 12:49 51.60825 4.66692 551 ft 98 kts 154°
2026-04-24 12:49 51.60132 4.66130 680 ft 159 kts 280°
2026-04-24 12:50 51.60339 4.66563 1217 ft 177 kts 179°
2026-04-24 12:50 51.60345 4.66333 2609 ft 124 kts 123°
2026-04-24 12:50 51.60193 4.66113 3495 ft 92 kts 62°
2026-04-24 12:50 51.60675 4.67020 3521 ft 151 kts 345°
2026-04-24 12:51 51.60737 4.65311 3361 ft 169 kts 264°
2026-04-24 12:51 51.61105 4.64354 3079 ft 99 kts 33°
2026-04-24 12:51 51.61362 4.65298 2716 ft 81 kts 67°
2026-04-24 12:51 51.61409 4.66118 2508 ft 70 kts 81°
2026-04-24 12:52 51.61393 4.66875 2230 ft 66 kts 89°
2026-04-24 12:52 51.61265 4.67524 1861 ft 69 kts 161°
2026-04-24 12:52 51.60720 4.67757 1692 ft 68 kts 166°
2026-04-24 12:52 51.60263 4.67373 571 ft 145 kts 217°
2026-04-24 12:53 51.59571 4.66620 651 ft 124 kts 208°
2026-04-24 12:53 51.58476 4.66194 883 ft 183 kts 196°
2026-04-24 12:53 51.57259 4.65577 1596 ft 160 kts 247°
2026-04-24 12:53 51.57007 4.64732 1013 ft 164 kts 276°
2026-04-24 12:54 51.56932 4.62583 900 ft 209 kts 263°
2026-04-24 12:54 51.56532 4.60145 689 ft 231 kts 253°
2026-04-24 12:54 51.56055 4.57823 640 ft 223 kts 263°
2026-04-24 12:54 51.55493 4.55304 57 ft 247 kts 249°
2026-04-24 12:55 51.55157 4.54408 2624 ft 108 kts 72°
2026-04-24 12:55 51.55621 4.55860 245 ft 233 kts 62°
2026-04-24 12:55 51.55318 4.54766 773 ft 102 kts 244°
2026-04-24 12:55 51.55677 4.56078 625 ft 176 kts 69°
2026-04-24 12:56 51.56005 4.57526 1666 ft 41 kts 81°
2026-04-24 12:56 51.56376 4.58182 937 ft 146 kts 306°
2026-04-24 12:56 51.55766 4.56449 159 ft 232 kts 250°
2026-04-24 12:56 51.55356 4.54909 1306 ft 153 kts 66°
2026-04-24 12:57 51.55935 4.56344 684 ft 147 kts 98°
2026-04-24 12:57 51.55417 4.55062 169 ft 211 kts 237°
2026-04-24 12:57 51.55153 4.54335 430 ft 166 kts 72°
2026-04-24 12:57 51.55695 4.56089 268 ft 172 kts 51°
2026-04-24 12:58 51.56356 4.57855 602 ft 196 kts 60°
2026-04-24 12:58 51.56793 4.59120 1782 ft 101 kts 227°
2026-04-24 12:58 51.56760 4.59764 853 ft 170 kts 51°
2026-04-24 12:58 51.57593 4.61357 1021 ft 190 kts 46°
2026-04-24 12:59 51.58567 4.62776 1229 ft 191 kts 39°
2026-04-24 12:59 51.59707 4.63965 1399 ft 204 kts 24°
2026-04-24 12:59 51.61042 4.64025 1934 ft 151 kts 332°
2026-04-24 12:59 51.61869 4.63198 1848 ft 166 kts 338°
2026-04-24 13:00 51.63126 4.63367 1397 ft 211 kts 43°
2026-04-24 13:00 51.64094 4.65044 1120 ft 199 kts 39°
2026-04-24 13:00 51.64991 4.66323 1318 ft 135 kts 43°
2026-04-24 13:00 51.65543 4.67152 931 ft 98 kts 39°
2026-04-24 13:01 51.65331 4.68081 906 ft 133 kts 182°
2026-04-24 13:01 51.64677 4.68913 574 ft 137 kts 104°
2026-04-24 13:01 51.65112 4.69514 788 ft 155 kts 311°
2026-04-24 13:01 51.65092 4.68020 1044 ft 145 kts 232°
2026-04-24 13:02 51.64409 4.67257 778 ft 102 kts 215°
2026-04-24 13:02 51.63928 4.66694 779 ft 91 kts 230°
2026-04-24 13:02 51.63771 4.66413 1159 ft 18 kts 227°
2026-04-24 13:02 51.63166 4.65798 535 ft 108 kts 297°
2026-04-24 13:03 51.63576 4.65091 507 ft 94 kts 344°
2026-04-24 13:03 51.64212 4.64837 560 ft 78 kts 322°
2026-04-24 13:03 51.64752 4.63958 693 ft 121 kts 312°
2026-04-24 13:03 51.64445 4.62376 859 ft 176 kts 243°
2026-04-24 13:04 51.64008 4.60430 1138 ft 197 kts 282°
2026-04-24 13:04 51.64790 4.60369 932 ft 226 kts 105°
2026-04-24 13:04 51.64165 4.59301 657 ft 202 kts 274°
2026-04-24 13:04 51.64434 4.59162 299 ft 197 kts 117°
2026-04-24 13:05 51.63530 4.60250 1082 ft 182 kts 193°
2026-04-24 13:05 51.62210 4.59427 998 ft 221 kts 202°
2026-04-24 13:05 51.60750 4.58444 1025 ft 233 kts 218°
2026-04-24 13:05 51.59645 4.56711 1576 ft 211 kts 219°
2026-04-24 13:06 51.59072 4.56710 2422 ft 124 kts 182°
2026-04-24 13:06 51.59315 4.57108 1671 ft 23 kts 53°
2026-04-24 13:06 51.58723 4.56068 1135 ft 194 kts 200°
2026-04-24 13:06 51.57427 4.54997 1156 ft 197 kts 183°
2026-04-24 13:07 51.56106 4.55453 1485 ft 184 kts 149°
2026-04-24 13:07 51.55149 4.56305 1465 ft 136 kts 147°
2026-04-24 13:07 51.54366 4.57025 1026 ft 124 kts 156°
2026-04-24 13:07 51.53568 4.57285 831 ft 114 kts 180°
2026-04-24 13:08 51.52779 4.56904 727 ft 124 kts 221°
2026-04-24 13:08 51.52544 4.55632 613 ft 139 kts 279°
2026-04-24 13:08 51.52871 4.54376 664 ft 117 kts 343°
2026-04-24 13:09 51.54175 4.53125 583 ft 129 kts 347°
2026-04-24 13:09 51.54842 4.53377 432 ft 95 kts 45°
2026-04-24 13:09 51.55180 4.54200 117 ft 82 kts 57°
2026-04-24 13:09 51.55406 4.55017 39 ft 72 kts 60°
2026-04-24 13:10 51.55530 4.55405 36 ft 19 kts 80°
2026-04-24 13:10 51.55580 4.55577 35 ft 15 kts 343°
2026-04-24 13:10 51.55587 4.55466 37 ft 13 kts 256°